Weather in Cosne-Cours-sur-Loire

France     47°24′42″N   2°55′34″E
temp.,
°C
wind,
m/s
gust,
m/s
humid.,
%
clouds,
%
prec.,
mm/h
press.,
hPa
HPBL,
m
24 october, sun
sun2423:00+6ese34780 0.0 102650
02:00+5ese22830 0.0 102515
05:00+4se32840 0.0 102427
08:00+3sse33890 0.0 102457
11:00+8s57610 0.0 1024280
14:00+14sw46400 0.0 1023652
17:00+15ssw35420 0.0 1022547
20:00+9s22531 0.0 102210
25 october, mon
mon2523:00+7s33615 0.0 102219
02:00+6s337815 0.0 102236
05:00+6s347196 0.0 102262
08:00+5s34812 0.0 102256
11:00+11ssw467299 0.0 1022307
14:00+9ssw3787100 0.4 1022276
17:00+13sw4780100 0.0 1021704
20:00+11s2390100 0.0 102248
26 october, tue
tue2623:00+10ssw349557 0.4 102389
02:00+8ssw22947 0.8 102315
05:00+8sw22940 0.0 102312
08:00+7wsw119555 0.0 102411
11:00+11wsw2285100 0.0 1025231
14:00+14sw227284 0.0 1024725
17:00+15w226489 0.0 1024943
20:00+10ssw1183100 0.0 102510
27 october, wed
wed2723:00+9sse118655 0.0 102610
02:00+8se118958 0.0 102510
05:00+8se119071 0.0 102511
08:00+7sse119112 0.0 102610
11:00+12se227551 0.0 1026232
14:00+16se22565 0.0 1025722
17:00+16ese225345 0.0 1023742
20:00+11e227133 0.0 102410
28 october, thu
thu2823:00+9ese227716 0.0 102320
02:00+8se228424 0.0 102314
05:00+7sse228778 0.0 102115
08:00+6se33905 0.0 102134
11:00+11sse47685 0.0 1020285
14:00+16ssw455095 0.0 1019543
17:00+17ssw35495 0.0 1018489
20:00+11sse22655 0.0 101812